{"data":{"norad_id":54138,"intl_designator":"2022-138AB","name":"ONEWEB-0520","alt_names":[],"object_type":"PAYLOAD","status":"ACTIVE","operator":null,"country":"UK","launch_date":"2022-10-22","launch_site_code":"SRILR","launch_vehicle":null,"mission":null,"orbit_class":"UNKNOWN","rcs_meters":null,"size_class":null,"mass_kg":null,"dimensions":null,"purposes":["comms"],"wikipedia_slug":null,"has_3d_model":false,"image_url":null,"decayed_at":null,"tle_current":{"epoch":"2026-05-25T03:46:36.062112Z","epoch_age_seconds":68411,"freshness":"FRESH","line1":"1 54138U 22138AB  26145.15736183  .00000104  00000+0  22813-3 0  9992","line2":"2 54138  87.9158 309.5551 0001631  85.1469 274.9850 13.19726631173783","mean_motion":13.19726631,"eccentricity":0.0001631,"inclination_deg":87.9158,"raan_deg":309.5551,"arg_perigee_deg":85.1469,"mean_anomaly_deg":274.985,"bstar":0.00022813,"rev_number":17378,"period_min":109.11350625007,"perigee_km":1184.5306477272,"apogee_km":1186.9979923378,"semimajor_km":7563.9013200325,"source":"CELESTRAK","updated_at":"2026-05-25T13:38:22.590032Z"}}}